Location: Dumbr?vi?a
(45.8833°N, 22.7000°E)
Time: 14:32:53
(UTC+00:00)

SL-16 R/B - Pass Details

Date: 03 March 2021
Orbit: 843 x 845 km, 71.0° (Epoch: 16 April)

Event Time Altitude Azimuth Distance (km) Brightness Sun altitude
Rises 17:47:35 0° 225° (SW) 3,390 5.9 -16.2°
Reaches altitude 10° 17:50:08 10° 231° (SW) 2,460 5.2 -16.7°
Maximum altitude 17:55:31 45° 304° (WNW) 1,147 3.3 -17.6°
Drops below altitude 10° 18:00:57 10° 16° (NNE) 2,476 4.6 -18.5°
Sets 18:03:32 0° 23° (NNE) 3,415 5.2 -19.0°
